Weather History for KVOK - November, 2011

Change the Weather History Date:

Friday, November 11, 2011

  Actual Average Record
Temperature  
Mean Temperature 32 °F -  
Max Temperature 41 °F - - ()
Min Temperature 22 °F - - ()
Degree Days  
Heating Degree Days 34    
Moisture  
Dew Point 26 °F    
Average Humidity 78    
Maximum Humidity 99    
Minimum Humidity 51    
Precipitation  
Precipitation 0.06 in - - ()
Sea Level Pressure  
Sea Level Pressure 29.82 in    
Wind  
Wind Speed 5 mph (South)    
Max Wind Speed 13 mph    
Max Gust Speed 18 mph    
Visibility 10 miles    
Events      
T = Trace of Precipitation, MM = Missing Value Source: NWS Daily Summary

Daily Weather History Graph

Daily Weather History Graph

Search for Another Location

Airport or City:

Trip Planner

Search our weather history database for the weather conditions in past years. The results will help you decide how hot, cold, wet, or windy it might be!

Date:

Astronomy

Nov. 11, 2011 Rise Set
Actual Time 6:50 AM CST 4:39 PM CST
Civil Twilight 6:19 AM CST 5:10 PM CST
Nautical Twilight 5:44 AM CST 5:44 PM CST
Astronomical Twilight 5:10 AM CST 6:18 PM CST
Moon 5:04 PM CST (11/11) 7:41 AM CST (11/11)
Length of Visible Light 10h 50m
Length of Day
9h 49m
Full, 99% of the Moon is Illuminated
Nov 11
Full
Nov 18
Last Quarter
Nov 25
New
Dec 2
First Quarter
Dec 10
Full

Hourly Weather History & Observations

Time (CST) Temp. Windchill Dew Point Humidity Pressure Visibility Wind Dir Wind Speed Gust Speed Precip Events Conditions
12:55 AM 28.0 °F 22.8 °F 25.0 °F 88% 30.01 in 10.0 mi West 4.6 mph - N/A   Clear
1:55 AM 27.1 °F 23.2 °F 24.8 °F 91% 30.00 in 10.0 mi WSW 3.5 mph - N/A   Partly Cloudy
2:55 AM 27.9 °F 20.6 °F 23.9 °F 85% 29.98 in 10.0 mi WSW 6.9 mph - N/A   Clear
3:55 AM 22.8 °F - 22.6 °F 99% 29.96 in 10.0 mi Calm Calm - N/A   Clear
4:55 AM 22.3 °F 17.6 °F 21.9 °F 99% 29.95 in 10.0 mi SSE 3.5 mph - N/A   Clear
5:55 AM 28.0 °F 22.8 °F 24.8 °F 88% 29.94 in 10.0 mi South 4.6 mph - N/A   Clear
6:55 AM 26.6 °F 22.6 °F 25.5 °F 96% 29.94 in 10.0 mi ESE 3.5 mph - N/A   Overcast
7:55 AM 28.2 °F - 26.2 °F 92% 29.93 in 10.0 mi Calm Calm - N/A   Overcast
8:55 AM 30.7 °F 24.1 °F 26.2 °F 83% 29.91 in 10.0 mi SSE 6.9 mph - N/A   Scattered Clouds
9:55 AM 34.3 °F 27.7 °F 26.1 °F 72% 29.89 in 10.0 mi SSE 8.1 mph - N/A   Scattered Clouds
10:55 AM 36.3 °F 30.8 °F 25.7 °F 65% 29.86 in 10.0 mi South 6.9 mph - N/A   Overcast
11:55 AM 38.5 °F 30.7 °F 23.2 °F 54% 29.81 in 10.0 mi South 12.7 mph - N/A   Overcast
12:55 PM 39.4 °F 33.2 °F 23.7 °F 54% 29.79 in 10.0 mi South 9.2 mph 18.4 mph 0.01 in   Overcast
1:55 PM 40.6 °F 33.8 °F 24.8 °F 53% 29.74 in 10.0 mi SSE 11.5 mph 17.3 mph 0.01 in   Partly Cloudy
2:55 PM 41.5 °F 35.0 °F 24.6 °F 51% 29.72 in 10.0 mi SSE 11.5 mph - 0.02 in   Clear
3:55 PM 40.8 °F 36.2 °F 24.4 °F 52% 29.73 in 10.0 mi South 6.9 mph - 0.02 in   Clear
4:55 PM 39.4 °F 35.2 °F 25.3 °F 57% 29.72 in 10.0 mi SW 5.8 mph - N/A   Clear
5:55 PM 37.8 °F 35.3 °F 26.4 °F 64% 29.71 in 10.0 mi SW 3.5 mph - N/A   Clear
6:55 PM 33.8 °F - 27.0 °F 76% 29.72 in 10.0 mi Calm Calm - N/A   Clear
7:55 PM 29.3 °F 25.6 °F 27.5 °F 93% 29.71 in 10.0 mi SSE 3.5 mph - N/A   Clear
8:55 PM 28.0 °F - 27.5 °F 98% 29.70 in 10.0 mi Calm Calm - N/A   Clear
9:55 PM 30.9 °F 27.5 °F 28.4 °F 90% 29.70 in 10.0 mi SSE 3.5 mph - N/A   Clear
10:55 PM 30.2 °F - 28.2 °F 92% 29.68 in 10.0 mi Calm Calm - N/A   Clear
11:55 PM 36.0 °F 32.1 °F 30.6 °F 81% 29.67 in 10.0 mi SW 4.6 mph - N/A   Clear